Location: Diguira
(13.1838°N, 4.9109°W)
Time: 16:53:33
(UTC+00:00)

Cosmos 1975 - Pass Details

Date: 18 September 2020
Orbit: 540 x 562 km, 82.5° (Epoch: 24 October)

Event Time Altitude Azimuth Distance (km) Brightness Sun altitude
Rises 18:34:40 0° 179° (S) 2,736 6.3 -4.8°
Reaches altitude 10° 18:36:51 10° 176° (S) 1,844 5.4 -5.3°
Maximum altitude 18:40:53 67° 93° (E) 610 2.8 -6.3°
Drops below altitude 10° 18:44:55 10° 11° (N) 1,848 5.4 -7.3°
Sets 18:47:06 0° 9° (N) 2,743 6.3 -7.8°
